SCP
0 0 0 0 0 0 0 0 0 0 0 0 0 0 0 0 0 0 0 0 0 0 0 0 0 0 0 0 0 0 0 0 0 0 0 0 0 0
0 0 0 0 0 0 0 0 0 0 0 0 0 0 0 0 0 0 0 0 0 0 0 0 0 0 0 0 0 0 0 0 0 0 0 0 0 0
0 0 0 0 0 0 0 0 0 0 0 0 0 0 0 0 0 0 0 0 0 0 0 0 0 0 0 0 0 0 0 0 0 0 0 0 0 0
0 0 0 0 0 0 0 0 0 0 0 0 0 0 0 0 0 0 0 0 0 0 0 0 0 0 0 0 0 0 0 0 0 0 0 0 0 0
0 0 0 0 0 0 0 0 0 0 0 0 0 0 0 0 0 0 0 0 0 0 0 0 0 0 0 0 0 0 0 0 0 0 0 0 0 0
0 0 0 0 0 0 0 0 0 0 0 0 0 0 0 0 0 0 0 0 0 0 0 0 0 0 0 0 0 0 0 0 0 0 0 0 0 0
0 0 0 0 0 0 0 0 0 0 0 0 0 0 0 0 0 0 0 0 0 0 0 0 0 0 0 0 0 0 0 0 0 0 0 0 0 0
0 0 0 0 0 0 0 0 0 0 0 0 0 0 0 0 0 0 0 0 0 0 0 0 0 0 0 0 0 0 0 0 0 0 0 0 0 0
0 0 0 0 0 0 0 0 0 0 0 0 0 0 0 0 0 0 0 0 0 0 0 0 0 0 0 0 0 0 0 0 0 0 0 0 0 0
0 0 0 0 0 0 0 0 0 0 0 0 0 0 0 0 0 0 0 0 0 0 0 0 0 0 0 0 0 0 0 0 0 0 0 0 0 0
0 0 0 0 0 0 0 0 0 0 0 0 0 0 0 0 0 0 0 0 0 0 0 0 0 0 0 0 0 0 0 0 0 0 0 0 0 0
0 0 0 0 0 0 0 0 0 0 0 0 0 0 0 0 0 0 0 0 0 0 0 0 0 0 0 0 0 0 0 0 0 0 0 0 0 0
0 0 0 0 0 0 0 0 0 0 0 0 0 0 0 0 0 0 0 0 0 0 0 0 0 0 0 0 0 0 0 0 0 0 0 0 0 0
0 0 0 0 0 0 0 0 0 0 0 0 0 0 0 0 0 0 0 0 0 0 0 0 0 0 0 0 0 0 0 0 0 0 0 0 0 0
0 0 0 0 0 0 0 0 0 0 0 0 0 0 0 0 0 0 0 0 0 0 0 0 0 0 0 0 0 0 0 0 0 0 0 0 0 0
0 0 0 0 0 0 0 0 0 0 0 0 0 0 0 0 0 0 0 0 0 0 0 0 0 0 0 0 0 0 0 0 0 0 0 0 0 0
0 0 0 0 0 0 0 0 0 0 0 0 0 0 0 0 0 0 0 0 0 0 0 0 0 0 0 0 0 0 0 0 0 0 0 0 0 0
0 0 0 0 0 0 0 0 0 0 0 0 0 0 0 0 0 0 0 0 0 0 0 0 0 0 0 0 0 0 0 0 0 0 0 0 0 0
0 0 0 0 0 0 0 0 0 0 0 0 0 0 0 0 0 0 0 0 0 0 0 0 0 0 0 0 0 0 0 0 0 0 0 0 0 0
0 0 0 0 0 0 0 0 0 0 0 0 0 0 0 0 0 0 0 0 0 0 0 0 0 0 0 0 0 0 0 0 0 0 0 0 0 0
0 0 0 0 0 0 0 0 0 0 0 0 0 0 0 0 0 0 0 0 0 0 0 0 0 0 0 0 0 0 0 0 0 0 0 0 0 0
0 0 0 0 0 0 0 0 0 0 0 0 0 0 0 0 0 0 0 0 0 0 0 0 0 0 0 0 0 0 0 0 0 0 0 0 0 0
0 0 0 0 0 0 0 0 0 0 0 0 0 0 0 0 0 0 0 0 0 0 0 0 0 0 0 0 0 0 0 0 0 0 0 0 0 0
Wind_Speed_500mb
12 9 7 9 9 10 11 12 16 14 17 24 31 37 38 38 34 30 27 26 21 19 18 22 26 27 26 25 24 22 21 17 14 14 16 19 21 23
15 11 10 9 9 11 11 12 15 17 17 27 35 40 40 39 34 31 29 25 23 24 23 24 27 28 27 27 26 25 24 25 25 23 19 19 21 24
18 14 13 12 10 11 14 16 17 19 24 30 32 36 38 39 35 32 29 28 26 26 26 27 29 30 30 27 28 30 29 28 28 30 28 22 23 26
20 19 17 15 13 14 14 17 21 24 28 33 35 37 38 39 36 35 33 28 29 31 29 30 32 32 28 30 33 33 33 31 28 30 32 24 25 28
25 23 22 19 18 18 19 21 24 27 30 35 35 38 40 39 37 36 34 33 32 32 31 32 33 31 31 34 34 34 34 32 31 34 35 29 32 32
29 28 26 26 24 22 23 26 29 31 34 37 37 39 40 41 39 38 38 36 34 37 34 34 32 32 35 33 34 32 34 35 35 37 37 37 40 41
33 33 33 33 29 25 28 30 33 35 38 39 40 40 42 43 41 39 40 39 39 42 38 34 34 37 36 34 32 33 36 36 35 36 35 37 47 47
38 38 40 39 36 31 35 39 40 40 42 44 42 43 42 44 44 42 43 44 46 42 40 34 41 38 37 34 32 36 37 35 30 27 36 44 48 45
44 45 45 43 43 41 43 46 44 46 48 47 47 45 48 45 46 45 45 47 47 48 47 51 42 37 41 36 35 39 38 30 25 36 41 45 46 52
50 50 51 51 49 49 53 54 47 47 47 49 50 48 51 50 48 48 46 48 50 52 47 55 47 43 37 36 40 38 33 25 37 39 43 45 51 55
49 52 53 53 51 53 58 56 51 51 50 50 52 50 51 50 52 49 47 50 53 57 47 51 52 45 46 43 32 27 23 38 37 40 43 48 52 53
50 53 53 51 52 57 59 55 60 54 51 54 57 55 54 52 52 49 47 51 51 55 49 43 47 46 44 45 19 37 38 38 39 40 46 49 48 51
52 54 52 49 51 52 55 59 57 54 55 59 61 59 57 53 53 48 48 51 52 57 59 57 61 54 50 54 62 51 47 40 41 44 46 46 45 50
52 50 49 46 50 50 52 56 55 57 61 61 62 60 58 53 49 50 50 52 56 59 59 63 63 59 59 66 70 62 54 53 51 49 46 47 51 50
46 45 47 47 48 48 50 53 54 59 66 65 61 58 56 53 51 52 54 53 55 57 62 63 65 62 65 71 73 71 67 56 53 45 56 53 56 56
47 46 47 46 49 49 51 50 54 59 65 69 68 64 60 60 61 58 60 59 63 62 60 62 64 65 67 70 73 76 68 66 57 55 56 55 57 55
47 47 45 47 50 50 49 50 50 46 54 62 64 65 67 66 65 64 67 68 73 72 66 61 64 65 68 72 79 77 72 67 60 54 57 63 59 60
43 41 43 42 42 47 48 47 47 45 44 46 51 56 62 65 66 68 71 75 78 77 75 70 68 72 77 79 78 77 68 68 57 51 59 70 74 64
36 36 34 33 32 35 39 39 42 43 44 47 49 52 57 63 66 68 69 71 76 77 77 76 78 74 78 88 78 74 76 66 62 64 63 67 77 76
27 27 29 31 33 35 41 46 45 45 45 48 51 54 57 60 65 69 71 73 74 75 77 76 80 84 85 88 84 70 69 76 70 67 68 68 74 76
25 27 28 31 30 37 46 49 47 48 47 51 56 56 58 62 68 70 72 73 74 77 81 79 77 74 74 74 81 83 62 59 64 66 65 72 78 84
26 28 29 31 30 34 41 44 44 47 54 58 55 55 57 60 65 68 70 73 76 77 80 78 78 74 74 75 82 80 73 61 55 58 56 58 66 74
30 29 29 30 32 33 37 42 46 48 49 50 53 57 59 63 65 67 70 72 74 76 80 78 80 77 76 76 76 75 70 68 66 63 55 46 53 59
Wind_Direction_500mb
234 247 270 294 313 326 326 327 329 323 311 310 316 327 327 326 320 313 311 306 300 301 317 319 317 317 315 313 312 310 308 309 312 310 312 319 327 327
239 248 269 292 315 323 324 324 317 309 297 306 317 321 324 323 317 308 305 297 297 301 309 311 311 310 310 309 307 307 304 300 297 298 305 316 322 322
243 255 272 291 304 313 317 320 318 310 305 307 312 318 320 318 315 308 299 295 294 301 304 307 308 308 309 307 306 306 304 301 297 296 297 309 315 315
247 257 271 280 292 303 312 321 316 317 308 308 313 316 318 318 313 308 301 293 292 301 303 306 306 306 304 305 305 305 306 305 303 299 294 301 310 312
251 259 267 280 290 297 308 316 314 312 304 307 309 311 313 315 312 304 297 294 295 298 300 302 302 301 302 304 303 303 304 306 305 303 297 294 305 311
256 261 268 275 280 290 302 309 312 309 303 306 306 305 307 310 310 305 298 294 295 296 300 301 298 299 301 300 299 300 301 303 303 299 296 293 304 307
262 264 269 273 278 288 294 301 304 301 299 303 304 302 303 304 307 305 297 293 297 298 299 299 299 304 300 298 294 297 300 300 300 298 295 300 306 306
266 269 270 274 279 285 292 293 295 297 296 298 300 299 299 298 302 302 296 294 295 296 298 297 298 302 298 296 293 297 300 301 298 294 299 303 307 307
271 271 274 278 281 284 286 285 287 292 294 294 297 299 293 297 296 295 293 289 290 292 295 298 302 303 300 295 297 299 299 295 294 301 303 307 307 309
272 276 280 281 282 284 284 281 283 286 288 291 293 292 289 291 290 290 290 286 286 288 293 295 301 302 292 293 298 294 286 278 302 301 302 305 307 308
279 283 287 287 286 281 278 281 285 285 288 289 289 287 285 284 286 286 287 284 285 287 287 290 297 300 299 301 294 282 271 297 296 298 300 304 307 306
289 289 288 288 285 285 285 286 283 291 289 287 288 288 286 285 282 285 284 281 277 280 287 284 292 297 306 304 290 295 295 293 294 296 299 304 306 306
287 289 293 290 285 282 285 284 288 286 286 285 285 287 287 287 286 287 286 280 274 273 279 282 287 289 287 291 296 299 299 297 298 299 302 302 302 308
292 294 292 287 281 281 282 285 287 284 285 285 287 289 292 293 291 287 285 281 278 275 275 278 279 285 288 290 292 298 301 303 305 302 299 302 305 306
292 292 291 288 283 282 282 284 284 283 287 288 291 293 296 294 287 285 286 285 282 277 275 275 279 282 282 284 288 293 298 303 303 302 304 300 305 309
295 292 288 287 284 284 285 283 281 283 286 291 296 299 297 294 292 291 288 288 285 283 281 279 278 278 280 282 285 288 292 294 302 302 297 297 301 308
291 289 287 286 286 287 291 291 289 285 278 285 293 295 293 290 291 291 288 284 283 288 289 285 281 278 277 280 281 287 293 295 301 301 296 300 305 310
292 291 290 289 290 291 296 297 299 303 302 299 295 294 293 294 293 291 286 283 283 286 287 287 281 278 279 280 282 290 292 296 302 300 301 304 305 310
293 291 294 300 302 303 308 311 309 307 306 304 303 300 297 293 292 291 290 288 286 287 288 287 284 278 275 276 286 289 294 298 298 299 303 304 303 309
302 304 307 310 312 312 308 307 306 305 304 303 301 299 298 298 294 293 292 292 292 293 291 288 285 283 278 282 284 283 285 291 294 298 303 301 300 305
285 284 288 289 302 310 309 306 305 304 305 303 303 302 300 298 297 297 296 296 296 294 292 293 296 294 289 281 275 283 287 285 289 295 302 303 306 308
300 307 307 307 301 290 287 289 289 292 295 299 301 301 300 298 296 297 297 296 296 295 295 297 294 290 285 280 280 283 288 288 285 287 290 293 297 296
309 309 309 311 311 308 300 295 293 295 297 300 301 300 299 298 298 297 297 298 299 298 299 297 293 289 285 283 282 281 284 290 293 293 292 292 294 299
Wind_Speed_850mb
12 9 7 9 9 10 11 12 16 14 17 24 31 37 38 38 34 30 27 26 21 19 18 22 26 27 26 25 24 22 21 17 14 14 16 19 21 23
15 11 10 9 9 11 11 12 15 17 17 27 35 40 40 39 34 31 29 25 23 24 23 24 27 28 27 27 26 25 24 25 25 23 19 19 21 24
18 14 13 12 10 11 14 16 17 19 24 30 32 36 38 39 35 32 29 28 26 26 26 27 29 30 30 27 28 30 29 28 28 30 28 22 23 26
20 19 17 15 13 14 14 17 21 24 28 33 35 37 38 39 36 35 33 28 29 31 29 30 32 32 28 30 33 33 33 31 28 30 32 24 25 28
25 23 22 19 18 18 19 21 24 27 30 35 35 38 40 39 37 36 34 33 32 32 31 32 33 31 31 34 34 34 34 32 31 34 35 29 32 32
29 28 26 26 24 22 23 26 29 31 34 37 37 39 40 41 39 38 38 36 34 37 34 34 32 32 35 33 34 32 34 35 35 37 37 37 40 41
33 33 33 33 29 25 28 30 33 35 38 39 40 40 42 43 41 39 40 39 39 42 38 34 34 37 36 34 32 33 36 36 35 36 35 37 47 47
38 38 40 39 36 31 35 39 40 40 42 44 42 43 42 44 44 42 43 44 46 42 40 34 41 38 37 34 32 36 37 35 30 27 36 44 48 45
44 45 45 43 43 41 43 46 44 46 48 47 47 45 48 45 46 45 45 47 47 48 47 51 42 37 41 36 35 39 38 30 25 36 41 45 46 52
50 50 51 51 49 49 53 54 47 47 47 49 50 48 51 50 48 48 46 48 50 52 47 55 47 43 37 36 40 38 33 25 37 39 43 45 51 55
49 52 53 53 51 53 58 56 51 51 50 50 52 50 51 50 52 49 47 50 53 57 47 51 52 45 46 43 32 27 23 38 37 40 43 48 52 53
50 53 53 51 52 57 59 55 60 54 51 54 57 55 54 52 52 49 47 51 51 55 49 43 47 46 44 45 19 37 38 38 39 40 46 49 48 51
52 54 52 49 51 52 55 59 57 54 55 59 61 59 57 53 53 48 48 51 52 57 59 57 61 54 50 54 62 51 47 40 41 44 46 46 45 50
52 50 49 46 50 50 52 56 55 57 61 61 62 60 58 53 49 50 50 52 56 59 59 63 63 59 59 66 70 62 54 53 51 49 46 47 51 50
46 45 47 47 48 48 50 53 54 59 66 65 61 58 56 53 51 52 54 53 55 57 62 63 65 62 65 71 73 71 67 56 53 45 56 53 56 56
47 46 47 46 49 49 51 50 54 59 65 69 68 64 60 60 61 58 60 59 63 62 60 62 64 65 67 70 73 76 68 66 57 55 56 55 57 55
47 47 45 47 50 50 49 50 50 46 54 62 64 65 67 66 65 64 67 68 73 72 66 61 64 65 68 72 79 77 72 67 60 54 57 63 59 60
43 41 43 42 42 47 48 47 47 45 44 46 51 56 62 65 66 68 71 75 78 77 75 70 68 72 77 79 78 77 68 68 57 51 59 70 74 64
36 36 34 33 32 35 39 39 42 43 44 47 49 52 57 63 66 68 69 71 76 77 77 76 78 74 78 88 78 74 76 66 62 64 63 67 77 76
27 27 29 31 33 35 41 46 45 45 45 48 51 54 57 60 65 69 71 73 74 75 77 76 80 84 85 88 84 70 69 76 70 67 68 68 74 76
25 27 28 31 30 37 46 49 47 48 47 51 56 56 58 62 68 70 72 73 74 77 81 79 77 74 74 74 81 83 62 59 64 66 65 72 78 84
26 28 29 31 30 34 41 44 44 47 54 58 55 55 57 60 65 68 70 73 76 77 80 78 78 74 74 75 82 80 73 61 55 58 56 58 66 74
30 29 29 30 32 33 37 42 46 48 49 50 53 57 59 63 65 67 70 72 74 76 80 78 80 77 76 76 76 75 70 68 66 63 55 46 53 59
Wind_Direction_850mb
234 247 270 294 313 326 326 327 329 323 311 310 316 327 327 326 320 313 311 306 300 301 317 319 317 317 315 313 312 310 308 309 312 310 312 319 327 327
239 248 269 292 315 323 324 324 317 309 297 306 317 321 324 323 317 308 305 297 297 301 309 311 311 310 310 309 307 307 304 300 297 298 305 316 322 322
243 255 272 291 304 313 317 320 318 310 305 307 312 318 320 318 315 308 299 295 294 301 304 307 308 308 309 307 306 306 304 301 297 296 297 309 315 315
247 257 271 280 292 303 312 321 316 317 308 308 313 316 318 318 313 308 301 293 292 301 303 306 306 306 304 305 305 305 306 305 303 299 294 301 310 312
251 259 267 280 290 297 308 316 314 312 304 307 309 311 313 315 312 304 297 294 295 298 300 302 302 301 302 304 303 303 304 306 305 303 297 294 305 311
256 261 268 275 280 290 302 309 312 309 303 306 306 305 307 310 310 305 298 294 295 296 300 301 298 299 301 300 299 300 301 303 303 299 296 293 304 307
262 264 269 273 278 288 294 301 304 301 299 303 304 302 303 304 307 305 297 293 297 298 299 299 299 304 300 298 294 297 300 300 300 298 295 300 306 306
266 269 270 274 279 285 292 293 295 297 296 298 300 299 299 298 302 302 296 294 295 296 298 297 298 302 298 296 293 297 300 301 298 294 299 303 307 307
271 271 274 278 281 284 286 285 287 292 294 294 297 299 293 297 296 295 293 289 290 292 295 298 302 303 300 295 297 299 299 295 294 301 303 307 307 309
272 276 280 281 282 284 284 281 283 286 288 291 293 292 289 291 290 290 290 286 286 288 293 295 301 302 292 293 298 294 286 278 302 301 302 305 307 308
279 283 287 287 286 281 278 281 285 285 288 289 289 287 285 284 286 286 287 284 285 287 287 290 297 300 299 301 294 282 271 297 296 298 300 304 307 306
289 289 288 288 285 285 285 286 283 291 289 287 288 288 286 285 282 285 284 281 277 280 287 284 292 297 306 304 290 295 295 293 294 296 299 304 306 306
287 289 293 290 285 282 285 284 288 286 286 285 285 287 287 287 286 287 286 280 274 273 279 282 287 289 287 291 296 299 299 297 298 299 302 302 302 308
292 294 292 287 281 281 282 285 287 284 285 285 287 289 292 293 291 287 285 281 278 275 275 278 279 285 288 290 292 298 301 303 305 302 299 302 305 306
292 292 291 288 283 282 282 284 284 283 287 288 291 293 296 294 287 285 286 285 282 277 275 275 279 282 282 284 288 293 298 303 303 302 304 300 305 309
295 292 288 287 284 284 285 283 281 283 286 291 296 299 297 294 292 291 288 288 285 283 281 279 278 278 280 282 285 288 292 294 302 302 297 297 301 308
291 289 287 286 286 287 291 291 289 285 278 285 293 295 293 290 291 291 288 284 283 288 289 285 281 278 277 280 281 287 293 295 301 301 296 300 305 310
292 291 290 289 290 291 296 297 299 303 302 299 295 294 293 294 293 291 286 283 283 286 287 287 281 278 279 280 282 290 292 296 302 300 301 304 305 310
293 291 294 300 302 303 308 311 309 307 306 304 303 300 297 293 292 291 290 288 286 287 288 287 284 278 275 276 286 289 294 298 298 299 303 304 303 309
302 304 307 310 312 312 308 307 306 305 304 303 301 299 298 298 294 293 292 292 292 293 291 288 285 283 278 282 284 283 285 291 294 298 303 301 300 305
285 284 288 289 302 310 309 306 305 304 305 303 303 302 300 298 297 297 296 296 296 294 292 293 296 294 289 281 275 283 287 285 289 295 302 303 306 308
300 307 307 307 301 290 287 289 289 292 295 299 301 301 300 298 296 297 297 296 296 295 295 297 294 290 285 280 280 283 288 288 285 287 290 293 297 296
309 309 309 311 311 308 300 295 293 295 297 300 301 300 299 298 298 297 297 298 299 298 299 297 293 289 285 283 282 281 284 290 293 293 292 292 294 299